sat.trackr.live / text

‹ back to catalog

LEMUR-2-KATIE

NORAD 67387 · 2026-004AA

PAYLOAD ACTIVE UNKNOWN

§ Identity

Operator
Country
US
Launch date
2026-01-11
Launch site
AFWTR
Launch vehicle
Mass (kg)
RCS (m²)

Purposes: earth_obs

External: N2YO · Heavens-Above · Gunter

§ Orbital elements

Epoch: 2026-05-25T04:29:35.225664Z

Period
96.65 min
Inclination
97.8039°
Eccentricity
0.0003789
Mean motion
14.89862480 rev/d
Perigee alt
595.7 km
Apogee alt
601.0 km
Semi-major
6,976.5 km
B*
2.8947e-4
RAAN
144.4915°
Arg perigee
140.8523°
Mean anomaly
219.2969°
Rev number
1,988

§ Raw data

LEMUR-2-KATIE1 67387U 26004AA  26145.18721326  .00002727  00000+0  28947-3 0  99912 67387  97.8039 144.4915 0003789 140.8523 219.2969 14.89862480 19881

JSON: /api/v1/satellites/67387 · /tle

For live sub-satellite position, see the globe view (requires WebGL).

§ Visibility from observer

Set your observer location to see the next 7 days of passes ≥ 10°. The values pass through the URL so the page stays shareable.

No JS? Fill the form by hand. The geolocation button needs JavaScript.